Location: Austin
(30.3000°N, 97.7500°W)
Time: 06:00:15
(UTC-05:00)

Cosmos 2369 Rocket - Pass Details

Date: 16 June 2025
Orbit: 827 x 852 km, 71.0° (Epoch: 08 July)

Event Time Altitude Azimuth Distance (km) Brightness Sun altitude
Exits shadow 03:59:04 40° 146° (SSE) 1,238 2.9 -25.7°
Maximum altitude 04:00:30 49° 105° (ESE) 1,090 2.8 -25.6°
Drops below altitude 10° 04:05:58 10° 32° (NNE) 2,481 5.7 -24.8°
Sets 04:08:30 0° 27° (NNE) 3,420 6.7 -24.5°
